Lincoln, CA

5:03 AM PDT on October 15, 2019 (GMT -0700)
Lincoln Regional-Harder

Weather History for KLHM - September, 2019

Change the Weather History Date:

Monday, September 16, 2019

  Actual Average (KAUN) Record (KAUN)
Temperature  
Mean Temperature 66 °F -  
Max Temperature 75 °F 83 °F 103 °F (1971)
Min Temperature 57 °F 57 °F 44 °F (2006)
Cooling Degree Days 1    
Growing Degree Days 16 (Base 50)    
Moisture  
Dew Point 56 °F    
Average Humidity 74    
Maximum Humidity 94    
Minimum Humidity 47    
Precipitation  
Precipitation 0.12 in - - ()
Sea Level Pressure  
Sea Level Pressure 29.88 in    
Wind  
Wind Speed 13 mph (SE)    
Max Wind Speed 20 mph    
Max Gust Speed 25 mph    
Visibility 10 miles    
Events      
Averages and records for this station are not official NWS values.
T = Trace of Precipitation, MM = Missing Value Source: NWS Daily Summary

Daily Weather History Graph

Daily Weather History Graph

Search for Another Location

Airport or City:

Astronomy

Sep. 16, 2019 Rise Set
Actual Time 6:47 AM PDT 7:12 PM PDT
Civil Twilight 6:20 AM PDT 7:38 PM PDT
Nautical Twilight 5:49 AM PDT 8:10 PM PDT
Astronomical Twilight 5:17 AM PDT 8:42 PM PDT
Moon 8:50 PM PDT (9/16) 8:58 AM PDT (9/16)
Length of Visible Light 13h 18m
Length of Day
12h 24m
Waning Gibbous, 94% of the Moon is Illuminated
Sep 16
Waning Gibbous
Sep 21
Last Quarter
Sep 28
New
Oct 5
First Quarter
Oct 13
Full

Hourly Weather History & Observations

Time (PDT) Temp. Dew Point Humidity Pressure Visibility Wind Dir Wind Speed Gust Speed Precip Events Conditions
12:15 AM 64.4 °F 59.0 °F 83% 29.80 in 10.0 mi SSE 15.0 mph 20.7 mph N/A   Clear
12:35 AM 64.4 °F 59.0 °F 83% 29.80 in 10.0 mi SSE 13.8 mph - N/A   Clear
12:55 AM 64.4 °F 59.0 °F 83% 29.80 in 10.0 mi SSE 15.0 mph - N/A   Clear
1:15 AM 64.4 °F 59.0 °F 83% 29.81 in 10.0 mi SSE 13.8 mph - N/A   Clear
1:35 AM 64.4 °F 59.0 °F 83% 29.80 in 10.0 mi SSE 16.1 mph 23.0 mph N/A   Clear
1:55 AM 64.4 °F 59.0 °F 83% 29.82 in 10.0 mi SSE 12.7 mph - N/A   Scattered Clouds
2:15 AM 64.4 °F 59.0 °F 83% 29.81 in 10.0 mi SSE 15.0 mph 18.4 mph N/A   Scattered Clouds
2:35 AM 64.4 °F 59.0 °F 83% 29.82 in 10.0 mi SSE 12.7 mph - N/A   Clear
2:55 AM 64.4 °F 59.0 °F 83% 29.82 in 10.0 mi SSE 11.5 mph - N/A   Clear
3:15 AM 64.4 °F 59.0 °F 83% 29.82 in 10.0 mi SSE 11.5 mph - N/A   Clear
3:35 AM 64.4 °F 59.0 °F 83% 29.82 in 10.0 mi SE 10.4 mph - N/A   Clear
3:55 AM 64.4 °F 59.0 °F 83% 29.82 in 10.0 mi SE 9.2 mph - N/A   Mostly Cloudy
4:15 AM 66.2 °F 59.0 °F 78% 29.82 in 10.0 mi SE 11.5 mph - N/A   Overcast
4:35 AM 66.2 °F 59.0 °F 78% 29.82 in 10.0 mi SE 12.7 mph 16.1 mph N/A   Overcast
4:55 AM 64.4 °F 59.0 °F 83% 29.83 in 10.0 mi SSE 10.4 mph - N/A   Mostly Cloudy
5:15 AM 64.4 °F 59.0 °F 83% 29.83 in 10.0 mi SSE 10.4 mph - N/A   Mostly Cloudy
5:35 AM 64.4 °F 59.0 °F 83% 29.84 in 10.0 mi SSE 12.7 mph - N/A   Overcast
5:55 AM 64.4 °F 59.0 °F 83% 29.83 in 10.0 mi SSE 11.5 mph - N/A   Mostly Cloudy
6:15 AM 64.4 °F 59.0 °F 83% 29.83 in 10.0 mi SSE 10.4 mph - N/A   Mostly Cloudy
6:35 AM 64.4 °F 59.0 °F 83% 29.83 in 10.0 mi SSE 12.7 mph 17.3 mph N/A   Overcast
6:55 AM 64.4 °F 59.0 °F 83% 29.84 in 10.0 mi SSE 13.8 mph - N/A   Overcast
7:15 AM 66.2 °F 59.0 °F 78% 29.84 in 10.0 mi SSE 11.5 mph - N/A   Mostly Cloudy
7:35 AM 66.2 °F 59.0 °F 78% 29.83 in 10.0 mi South 11.5 mph - N/A   Overcast
7:55 AM 66.2 °F 60.8 °F 83% 29.84 in 10.0 mi South 11.5 mph - N/A   Overcast
8:15 AM 64.4 °F 60.8 °F 88% 29.84 in 7.0 mi South 13.8 mph - 0.01 in   Overcast
8:35 AM 60.8 °F 59.0 °F 94% 29.85 in 4.0 mi WSW 15.0 mph 25.3 mph 0.07 in   Overcast
8:55 AM 60.8 °F 59.0 °F 94% 29.85 in 5.0 mi SSW 6.9 mph - N/A   Overcast
9:15 AM 60.8 °F 59.0 °F 94% 29.85 in 7.0 mi SSW 10.4 mph 16.1 mph 0.03 in   Overcast
9:35 AM 60.8 °F 59.0 °F 94% 29.86 in 10.0 mi SSW 11.5 mph - 0.05 in   Overcast
9:55 AM 60.8 °F 59.0 °F 94% 29.86 in 10.0 mi South 11.5 mph - N/A   Mostly Cloudy
10:15 AM 60.8 °F 59.0 °F 94% 29.87 in 10.0 mi South 10.4 mph - N/A   Mostly Cloudy
10:35 AM 62.6 °F 60.8 °F 94% 29.87 in 10.0 mi SSW 9.2 mph - N/A   Mostly Cloudy
10:55 AM 62.6 °F 59.0 °F 88% 29.88 in 10.0 mi South 12.7 mph - N/A   Scattered Clouds
11:15 AM 62.6 °F 60.8 °F 94% 29.89 in 10.0 mi SSE 11.5 mph - N/A   Mostly Cloudy
11:35 AM 64.4 °F 60.8 °F 88% 29.90 in 10.0 mi SSE 12.7 mph - N/A   Scattered Clouds
11:55 AM 66.2 °F 60.8 °F 83% 29.91 in 10.0 mi SSE 9.2 mph - N/A   Mostly Cloudy
12:15 PM 68.0 °F 60.8 °F 78% 29.91 in 10.0 mi SSE 12.7 mph 17.3 mph N/A   Mostly Cloudy
12:35 PM 66.2 °F 59.0 °F 78% 29.91 in 10.0 mi SE 10.4 mph - N/A   Mostly Cloudy
12:55 PM 69.8 °F 57.2 °F 64% 29.91 in 10.0 mi SSE 12.7 mph 16.1 mph N/A   Mostly Cloudy
1:15 PM 68.0 °F 59.0 °F 73% 29.92 in 10.0 mi ESE 11.5 mph - N/A   Mostly Cloudy
1:35 PM 69.8 °F 59.0 °F 68% 29.92 in 10.0 mi SE 13.8 mph - N/A   Mostly Cloudy
1:55 PM 71.6 °F 59.0 °F 64% 29.92 in 10.0 mi SE 16.1 mph 19.6 mph N/A   Scattered Clouds
2:15 PM 69.8 °F 57.2 °F 64% 29.92 in 10.0 mi SSE 15.0 mph - N/A   Scattered Clouds
2:35 PM 71.6 °F 55.4 °F 57% 29.92 in 10.0 mi SSE 15.0 mph 24.2 mph N/A   Scattered Clouds
2:55 PM 73.4 °F 53.6 °F 50% 29.91 in 10.0 mi SSE 16.1 mph 19.6 mph N/A   Clear
3:15 PM 73.4 °F 55.4 °F 53% 29.91 in 10.0 mi SSE 17.3 mph - N/A   Clear
3:35 PM 73.4 °F 53.6 °F 50% 29.91 in 10.0 mi SE 17.3 mph 20.7 mph N/A   Clear
3:55 PM 73.4 °F 53.6 °F 50% 29.91 in 10.0 mi SE 15.0 mph - N/A   Clear
4:15 PM 75.2 °F 53.6 °F 47% 29.91 in 10.0 mi SE 10.4 mph 19.6 mph N/A   Scattered Clouds
4:35 PM 73.4 °F 51.8 °F 47% 29.92 in 10.0 mi SE 11.5 mph 17.3 mph N/A   Overcast
4:55 PM 66.2 °F 48.2 °F 52% 29.93 in 10.0 mi NE 19.6 mph 24.2 mph N/A   Overcast
5:15 PM 68.0 °F 50.0 °F 52% 29.92 in 10.0 mi ENE 19.6 mph 24.2 mph N/A   Mostly Cloudy
5:35 PM 68.0 °F 50.0 °F 52% 29.93 in 10.0 mi East 18.4 mph - N/A   Scattered Clouds
5:55 PM 64.4 °F 50.0 °F 59% 29.93 in 10.0 mi East 16.1 mph - N/A   Clear
6:15 PM 64.4 °F 50.0 °F 59% 29.93 in 10.0 mi East 17.3 mph - N/A   Clear
6:35 PM 64.4 °F 50.0 °F 59% 29.93 in 10.0 mi East 16.1 mph - N/A   Clear
6:55 PM 62.6 °F 50.0 °F 63% 29.93 in 10.0 mi East 16.1 mph - N/A   Clear
7:15 PM 62.6 °F 50.0 °F 63% 29.93 in 10.0 mi East 16.1 mph - N/A   Clear
7:35 PM 60.8 °F 50.0 °F 68% 29.93 in 10.0 mi East 16.1 mph 21.9 mph N/A   Clear
7:55 PM 60.8 °F 50.0 °F 68% 29.93 in 10.0 mi East 16.1 mph - N/A   Clear
8:15 PM 60.8 °F 50.0 °F 68% 29.93 in 10.0 mi East 13.8 mph 18.4 mph N/A   Clear
8:55 PM 60.8 °F 50.0 °F 68% 29.94 in 10.0 mi East 13.8 mph - N/A   Clear
9:15 PM 60.8 °F 50.0 °F 68% 29.95 in 10.0 mi East 11.5 mph - N/A   Clear
9:35 PM 60.8 °F 50.0 °F 68% 29.95 in 10.0 mi East 11.5 mph - N/A   Clear
9:55 PM 60.8 °F 50.0 °F 68% 29.96 in 10.0 mi East 9.2 mph - N/A   Clear
10:15 PM 60.8 °F 50.0 °F 68% 29.96 in 10.0 mi East 10.4 mph - N/A   Clear
10:35 PM 59.0 °F 50.0 °F 72% 29.96 in 10.0 mi East 9.2 mph - N/A   Clear
10:55 PM 59.0 °F 50.0 °F 72% 29.96 in 10.0 mi East 5.8 mph - N/A   Clear
11:15 PM 57.2 °F 50.0 °F 77% 29.97 in 10.0 mi East 5.8 mph - N/A   Clear
11:35 PM 57.2 °F 50.0 °F 77% 29.97 in 10.0 mi East 5.8 mph - N/A   Clear
11:55 PM 59.0 °F 50.0 °F 72% 29.97 in 10.0 mi ESE 5.8 mph - N/A   Clear